Time,TemperatureF,DewpointF,PressureIn,WindDirection,WindDirectionDegrees,WindSpeedMPH,WindSpeedGustMPH,Humidity,HourlyPrecipIn,Conditions,Clouds,dailyrainin,SoftwareType,DateUTC
2013-06-10 00:10:00,66.1,65.0,29.85,SSE,166,0.0,2.0,96,0.00,,,0.00,weatherlink.com 1.10,2013-06-10 05:10:00,
2013-06-10 00:25:00,66.1,65.0,29.85,South,182,0.0,1.0,96,0.00,,,0.00,weatherlink.com 1.10,2013-06-10 05:25:00,
2013-06-10 00:40:00,65.9,65.0,29.84,SE,139,0.0,3.0,96,0.00,,,0.00,weatherlink.com 1.10,2013-06-10 05:40:00,
2013-06-10 00:55:00,65.7,65.0,29.84,SSE,161,1.0,3.0,96,0.00,,,0.00,weatherlink.com 1.10,2013-06-10 05:55:00,
2013-06-10 01:10:00,65.6,65.0,29.83,SW,217,0.0,5.0,96,0.00,,,0.00,weatherlink.com 1.10,2013-06-10 06:10:00,
2013-06-10 01:25:00,65.6,65.0,29.83,SSW,196,0.0,3.0,96,0.00,,,0.00,weatherlink.com 1.10,2013-06-10 06:25:00,
2013-06-10 01:40:00,65.5,64.0,29.82,SSW,203,0.0,2.0,96,0.00,,,0.00,weatherlink.com 1.10,2013-06-10 06:40:00,
2013-06-10 01:55:00,65.3,64.0,29.82,South,182,1.0,2.0,96,0.00,,,0.00,weatherlink.com 1.10,2013-06-10 06:55:00,
2013-06-10 02:10:00,65.1,64.0,29.81,SSE,166,0.0,3.0,96,0.00,,,0.00,weatherlink.com 1.10,2013-06-10 07:10:00,
2013-06-10 02:26:00,65.0,64.0,29.82,SW,230,1.0,4.0,96,0.00,,,0.00,weatherlink.com 1.10,2013-06-10 07:26:00,
2013-06-10 02:40:00,65.0,64.0,29.82,SW,230,2.0,5.0,97,0.00,,,0.00,weatherlink.com 1.10,2013-06-10 07:40:00,
2013-06-10 02:55:00,65.1,64.0,29.82,South,182,3.0,6.0,97,0.00,,,0.00,weatherlink.com 1.10,2013-06-10 07:55:00,
2013-06-10 03:10:00,65.5,65.0,29.82,SW,227,3.0,5.0,97,0.00,,,0.00,weatherlink.com 1.10,2013-06-10 08:10:00,
2013-06-10 03:25:00,65.7,65.0,29.82,SW,233,1.0,4.0,97,0.00,,,0.00,weatherlink.com 1.10,2013-06-10 08:25:00,
2013-06-10 03:40:00,65.9,65.0,29.81,SW,217,1.0,4.0,97,0.00,,,0.00,weatherlink.com 1.10,2013-06-10 08:40:00,
2013-06-10 03:55:00,66.0,65.0,29.82,SSW,204,0.0,5.0,97,0.00,,,0.00,weatherlink.com 1.10,2013-06-10 08:55:00,
2013-06-10 04:10:00,66.1,65.0,29.82,SW,222,0.0,8.0,97,0.00,,,0.00,weatherlink.com 1.10,2013-06-10 09:10:00,
2013-06-10 04:25:00,66.1,65.0,29.83,SSW,213,1.0,6.0,97,0.00,,,0.00,weatherlink.com 1.10,2013-06-10 09:25:00,
2013-06-10 04:40:00,66.1,65.0,29.82,SW,220,1.0,3.0,97,0.00,,,0.00,weatherlink.com 1.10,2013-06-10 09:40:00,
2013-06-10 04:55:00,66.2,65.0,29.82,SW,219,0.0,2.0,97,0.00,,,0.00,weatherlink.com 1.10,2013-06-10 09:55:00,
2013-06-10 05:10:00,66.3,65.0,29.83,SW,232,1.0,3.0,96,0.00,,,0.00,weatherlink.com 1.10,2013-06-10 10:10:00,
2013-06-10 05:25:00,66.3,65.0,29.84,SSW,197,3.0,5.0,96,0.00,,,0.00,weatherlink.com 1.10,2013-06-10 10:25:00,
2013-06-10 05:40:00,66.4,66.0,29.84,SW,231,0.0,3.0,97,0.00,,,0.00,weatherlink.com 1.10,2013-06-10 10:40:00,
2013-06-10 05:55:00,66.5,66.0,29.84,SW,220,0.0,2.0,97,0.00,,,0.00,weatherlink.com 1.10,2013-06-10 10:55:00,
2013-06-10 06:10:00,66.6,66.0,29.84,SSW,195,0.0,3.0,97,0.00,,,0.00,weatherlink.com 1.10,2013-06-10 11:10:00,
2013-06-10 06:25:00,66.6,66.0,29.84,SSE,157,0.0,2.0,97,0.00,,,0.00,weatherlink.com 1.10,2013-06-10 11:25:00,
2013-06-10 06:40:00,66.8,66.0,29.84,SSW,207,1.0,3.0,96,0.00,,,0.00,weatherlink.com 1.10,2013-06-10 11:40:00,
2013-06-10 06:55:00,67.1,66.0,29.85,SW,216,0.0,3.0,96,0.00,,,0.00,weatherlink.com 1.10,2013-06-10 11:55:00,
2013-06-10 07:10:00,67.2,66.0,29.85,SW,215,0.0,4.0,95,0.00,,,0.00,weatherlink.com 1.10,2013-06-10 12:10:00,
2013-06-10 07:25:00,68.2,67.0,29.86,SW,219,1.0,5.0,94,0.00,,,0.00,weatherlink.com 1.10,2013-06-10 12:25:00,
2013-06-10 07:40:00,68.1,66.0,29.86,SW,228,0.0,9.0,92,0.01,,,0.01,weatherlink.com 1.10,2013-06-10 12:40:00,
2013-06-10 07:55:00,67.6,66.0,29.87,SW,221,0.0,5.0,94,0.05,,,0.05,weatherlink.com 1.10,2013-06-10 12:55:00,
2013-06-10 08:10:00,67.3,66.0,29.86,SSE,162,0.0,2.0,95,0.06,,,0.06,weatherlink.com 1.10,2013-06-10 13:10:00,
2013-06-10 08:25:00,67.6,67.0,29.86,SSE,162,0.0,1.0,96,0.06,,,0.06,weatherlink.com 1.10,2013-06-10 13:25:00,
2013-06-10 08:40:00,67.8,67.0,29.86,SW,222,0.0,0.0,96,0.05,,,0.06,weatherlink.com 1.10,2013-06-10 13:40:00,
2013-06-10 08:55:00,68.1,67.0,29.85,SSE,166,0.0,4.0,96,0.01,,,0.06,weatherlink.com 1.10,2013-06-10 13:55:00,
2013-06-10 09:10:00,68.5,67.0,29.86,SSE,161,0.0,4.0,96,0.00,,,0.06,weatherlink.com 1.10,2013-06-10 14:10:00,
2013-06-10 09:26:00,69.3,68.0,29.86,South,183,0.0,9.0,96,0.00,,,0.06,weatherlink.com 1.10,2013-06-10 14:26:00,
2013-06-10 09:41:00,69.4,67.0,29.86,SE,146,3.0,9.0,92,0.00,,,0.06,weatherlink.com 1.10,2013-06-10 14:41:00,
2013-06-10 09:56:00,68.6,67.0,29.84,SSE,153,1.0,4.0,94,0.03,,,0.09,weatherlink.com 1.10,2013-06-10 14:56:00,
2013-06-10 10:11:00,68.4,67.0,29.84,South,181,0.0,3.0,96,0.03,,,0.09,weatherlink.com 1.10,2013-06-10 15:11:00,
2013-06-10 10:26:00,68.9,68.0,29.84,SSE,159,0.0,4.0,96,0.03,,,0.09,weatherlink.com 1.10,2013-06-10 15:26:00,
2013-06-10 10:41:00,70.1,68.0,29.84,SSE,166,3.0,6.0,94,0.02,,,0.09,weatherlink.com 1.10,2013-06-10 15:41:00,
2013-06-10 10:56:00,71.5,70.0,29.84,SSE,166,1.0,6.0,94,0.00,,,0.09,weatherlink.com 1.10,2013-06-10 15:56:00,
2013-06-10 11:11:00,73.2,70.0,29.84,SE,132,2.0,12.0,89,0.00,,,0.09,weatherlink.com 1.10,2013-06-10 16:11:00,
2013-06-10 11:26:00,74.2,70.0,29.84,WSW,246,4.0,11.0,87,0.00,,,0.09,weatherlink.com 1.10,2013-06-10 16:26:00,
2013-06-10 12:11:00,76.5,70.0,29.84,SSW,206,5.0,11.0,80,0.01,,,0.10,weatherlink.com 1.10,2013-06-10 17:11:00,
2013-06-10 12:26:00,76.8,69.0,29.84,SW,224,2.0,12.0,76,0.01,,,0.10,weatherlink.com 1.10,2013-06-10 17:26:00,
2013-06-10 12:41:00,77.8,69.0,29.84,SSW,206,2.0,10.0,74,0.01,,,0.10,weatherlink.com 1.10,2013-06-10 17:41:00,
2013-06-10 12:56:00,77.9,68.0,29.84,WSW,245,7.0,11.0,71,0.00,,,0.10,weatherlink.com 1.10,2013-06-10 17:56:00,
2013-06-10 13:11:00,79.4,67.0,29.84,WSW,252,3.0,11.0,66,0.00,,,0.10,weatherlink.com 1.10,2013-06-10 18:11:00,
2013-06-10 13:41:00,80.1,66.0,29.84,WSW,242,6.0,10.0,62,0.00,,,0.10,weatherlink.com 1.10,2013-06-10 18:41:00,
2013-06-10 13:56:00,80.2,67.0,29.84,SW,222,3.0,10.0,64,0.00,,,0.10,weatherlink.com 1.10,2013-06-10 18:56:00,
2013-06-10 14:11:00,80.3,66.0,29.84,WSW,253,3.0,10.0,62,0.00,,,0.10,weatherlink.com 1.10,2013-06-10 19:11:00,
2013-06-10 14:26:00,81.4,68.0,29.84,SSW,211,3.0,6.0,64,0.00,,,0.10,weatherlink.com 1.10,2013-06-10 19:26:00,
2013-06-10 14:41:00,82.8,65.0,29.84,SW,229,5.0,9.0,56,0.00,,,0.10,weatherlink.com 1.10,2013-06-10 19:41:00,
2013-06-10 14:56:00,83.2,66.0,29.83,SSW,208,5.0,12.0,57,0.00,,,0.10,weatherlink.com 1.10,2013-06-10 19:56:00,
2013-06-10 15:11:00,83.7,65.0,29.84,SW,224,9.0,12.0,53,0.00,,,0.10,weatherlink.com 1.10,2013-06-10 20:11:00,
2013-06-10 15:26:00,84.1,66.0,29.83,SW,224,1.0,14.0,54,0.00,,,0.10,weatherlink.com 1.10,2013-06-10 20:26:00,
2013-06-10 15:56:00,84.4,65.0,29.83,West,277,4.0,10.0,52,0.00,,,0.10,weatherlink.com 1.10,2013-06-10 20:56:00,
2013-06-10 16:12:00,84.7,67.0,29.83,West,265,1.0,7.0,55,0.00,,,0.10,weatherlink.com 1.10,2013-06-10 21:12:00,
2013-06-10 16:27:00,84.8,66.0,29.83,SSW,203,5.0,10.0,53,0.00,,,0.10,weatherlink.com 1.10,2013-06-10 21:27:00,
2013-06-10 16:42:00,84.4,66.0,29.84,SSW,206,5.0,8.0,55,0.00,,,0.10,weatherlink.com 1.10,2013-06-10 21:42:00,
2013-06-10 17:12:00,84.5,65.0,29.83,SW,220,4.0,6.0,52,0.00,,,0.10,weatherlink.com 1.10,2013-06-10 22:12:00,
2013-06-10 17:27:00,85.8,65.0,29.83,SW,222,1.0,9.0,50,0.00,,,0.10,weatherlink.com 1.10,2013-06-10 22:27:00,
2013-06-10 17:42:00,86.0,65.0,29.83,West,259,2.0,5.0,50,0.00,,,0.10,weatherlink.com 1.10,2013-06-10 22:42:00,
2013-06-10 17:57:00,85.4,66.0,29.83,SSW,209,1.0,3.0,52,0.00,,,0.10,weatherlink.com 1.10,2013-06-10 22:57:00,
2013-06-10 18:12:00,84.4,65.0,29.84,SW,234,5.0,7.0,53,0.00,,,0.10,weatherlink.com 1.10,2013-06-10 23:12:00,
2013-06-10 18:27:00,83.6,65.0,29.84,SW,215,3.0,5.0,54,0.00,,,0.10,weatherlink.com 1.10,2013-06-10 23:27:00,
2013-06-10 18:42:00,82.7,65.0,29.84,WNW,294,0.0,4.0,55,0.00,,,0.10,weatherlink.com 1.10,2013-06-10 23:42:00,
2013-06-10 18:57:00,81.2,65.0,29.84,WSW,251,0.0,4.0,59,0.00,,,0.10,weatherlink.com 1.10,2013-06-10 23:57:00,
2013-06-10 19:12:00,79.2,66.0,29.85,WSW,248,0.0,1.0,64,0.00,,,0.10,weatherlink.com 1.10,2013-06-11 00:12:00,
2013-06-10 19:27:00,77.7,68.0,29.85,SE,138,0.0,1.0,71,0.00,,,0.10,weatherlink.com 1.10,2013-06-11 00:27:00,
2013-06-10 19:42:00,76.4,67.0,29.85,SE,138,0.0,0.0,72,0.00,,,0.10,weatherlink.com 1.10,2013-06-11 00:42:00,
2013-06-10 19:57:00,75.1,67.0,29.86,SE,138,0.0,0.0,76,0.00,,,0.10,weatherlink.com 1.10,2013-06-11 00:57:00,
2013-06-10 20:12:00,74.0,67.0,29.86,SE,138,0.0,0.0,79,0.00,,,0.10,weatherlink.com 1.10,2013-06-11 01:12:00,
2013-06-10 20:27:00,72.7,67.0,29.87,SE,138,0.0,0.0,81,0.00,,,0.10,weatherlink.com 1.10,2013-06-11 01:27:00,
2013-06-10 20:42:00,71.5,67.0,29.87,SE,138,0.0,0.0,84,0.00,,,0.10,weatherlink.com 1.10,2013-06-11 01:42:00,
2013-06-10 20:57:00,70.4,66.0,29.87,SE,138,0.0,0.0,86,0.00,,,0.10,weatherlink.com 1.10,2013-06-11 01:57:00,
2013-06-10 21:13:00,69.3,66.0,29.88,SE,138,0.0,0.0,88,0.00,,,0.10,weatherlink.com 1.10,2013-06-11 02:13:00,
2013-06-10 21:27:00,68.5,66.0,29.88,SE,138,0.0,0.0,90,0.00,,,0.10,weatherlink.com 1.10,2013-06-11 02:27:00,
2013-06-10 21:42:00,67.8,65.0,29.89,SE,138,0.0,0.0,91,0.00,,,0.10,weatherlink.com 1.10,2013-06-11 02:42:00,
2013-06-10 21:57:00,67.2,65.0,29.89,SE,138,0.0,0.0,92,0.00,,,0.10,weatherlink.com 1.10,2013-06-11 02:57:00,
2013-06-10 22:12:00,66.5,64.0,29.89,SE,138,0.0,0.0,92,0.00,,,0.10,weatherlink.com 1.10,2013-06-11 03:12:00,
2013-06-10 22:27:00,66.0,64.0,29.90,SE,138,0.0,0.0,93,0.00,,,0.10,weatherlink.com 1.10,2013-06-11 03:27:00,
2013-06-10 22:42:00,65.4,63.0,29.90,SE,138,0.0,0.0,93,0.00,,,0.10,weatherlink.com 1.10,2013-06-11 03:42:00,
2013-06-10 22:57:00,65.2,64.0,29.91,SE,138,0.0,0.0,94,0.00,,,0.10,weatherlink.com 1.10,2013-06-11 03:57:00,
2013-06-10 23:12:00,64.9,63.0,29.91,SE,138,0.0,0.0,94,0.00,,,0.10,weatherlink.com 1.10,2013-06-11 04:12:00,
2013-06-10 23:27:00,64.6,63.0,29.91,SE,138,0.0,0.0,94,0.00,,,0.10,weatherlink.com 1.10,2013-06-11 04:27:00,
2013-06-10 23:42:00,64.3,63.0,29.91,SE,138,0.0,0.0,95,0.00,,,0.10,weatherlink.com 1.10,2013-06-11 04:42:00,
2013-06-10 23:57:00,64.0,63.0,29.91,SE,138,0.0,0.0,95,0.00,,,0.10,weatherlink.com 1.10,2013-06-11 04:57:00,